Location: Betpouey
(42.8833°N, 0.0333°E)
Time: 07:32:20
(UTC+00:00)

Lacrosse 5 rocket - Pass Details

Date: 01 December 2020
Orbit: 461 x 635 km, 57.0° (Epoch: 17 January)

Event Time Altitude Azimuth Distance (km) Brightness Sun altitude
Rises 18:21:04 0° 280° (W) 2,512 5.9 -20.4°
Reaches altitude 10° 18:24:07 10° 308° (NW) 1,620 4.2 -21.0°
Maximum altitude 18:26:01 14° 340° (NNW) 1,408 3.5 -21.3°
Enters shadow 18:26:34 13° 350° (N) 1,426 3.4 -21.4°
